User: anonymous   Login
Location: Unspecified
(0.0000°N, 0.0000°E)
Time: 15:05:57
(UTC+00:00)
Language:

deb r/b Ablestar - Orbit

View from above orbital plane
View from above orbital plane
View from above satellite
View from above satellite

Ground track
Ground track

The orbit data is extracted from the following two-line orbital elements,

1 00335U 61015DM  17326.76226816  .00000324  00000-0  20044-3 0  9993
2 00335  66.8412 195.7595 0043506 317.0779  42.6921 14.16863987883953
Epoch (UTC): 22 November 2017 18:17:39
Eccentricity: 0.0043506
inclination: 66.8412°
perigee height: 804 km
apogee height: 867 km
right ascension of ascending node: 195.7595°
argument of perigee: 317.0779°
revolutions per day: 14.16863987
mean anomaly at epoch: 42.6921°
orbit number at epoch: 88395

The dashed part of the orbit path shows where the satellite is in the earth's shadow,  

DLR